Printer-friendly version

IAU Minor Planet Center

Minor Planet Center

MPEC 2002-M26 : 2000 DJ8

The following Minor Planet Electronic Circular may be linked-to from your own Web pages, but must not otherwise be redistributed electronically.


Read MPEC 2002-M25 Read MPEC 2002-M27


M.P.E.C. 2002-M26                                Issued 2002 June 23, 23:12 UT

     The Minor Planet Electronic Circulars contain information on unusual
         minor planets and routine data on comets.  They are published
   on behalf of Commission 20 of the International Astronomical Union by the
          Minor Planet Center, Smithsonian Astrophysical Observatory,
                          Cambridge, MA 02138, U.S.A.

             Prepared using the Tamkin Foundation Computer Network

                              MPC@CFA.HARVARD.EDU
          URL http://cfa-www.harvard.edu/iau/mpc.html  ISSN 1523-6714

                                   2000 DJ8

                           Revision to MPEC 2000-E09

Observations:
     K00D08J 3C2002 06 23.02975 17 07 41.31 +42 47 26.8          20.3        950
     K00D08J 3C2002 06 23.03637 17 07 40.57 +42 47 20.7                      950
     K00D08J 3C2002 06 23.04234 17 07 39.87 +42 47 15.1                      950
     K00D08J HC2002 06 23.89973 17 06 06.73 +42 33 29.9                      246
     K00D08J HC2002 06 23.90128 17 06 06.43 +42 33 28.7                      246
     K00D08J HC2002 06 23.91421 17 06 05.10 +42 33 15.7                      246

Observer details:
246 Klet Observatory-KLENOT.  Observers J. Ticha, M. Tichy.  1.06-m KLENOT
    telescope + CCD.
950 La Palma.  Observers R. Greimel, S. Collander-Brown, A. Fitzsimmons.
    2.5-m reflector + CCD.

Orbital elements:
2000 DJ8
Epoch 2002 May 6.0 TT = JDT 2452400.5                   MPC
M 207.45460              (2000.0)            P               Q
n   0.58780943     Peri.  262.91767     +0.60234021     -0.69269473
a   1.4113834      Node   139.61211     +0.71670748     +0.68810770
e   0.2527654      Incl.   37.74944     -0.35144937     +0.21605970
P   1.68           H   17.9           G   0.15           U   5
Residuals in seconds of arc
000226 704  0.9-  0.3+    000227 651  1.0-  0.4+    000229 704  0.1-  1.3-
000226 704  0.2-  0.7-    000227 858  0.2+  0.2+    000301 402  0.6-  0.6+
000226 704  0.5+  0.3-    000227 858  0.0   0.6+    000301 402  0.9-  0.2-
000226 704  0.3-  0.1-    000227 858  0.3-  0.4+    000301 402  0.1+  0.8+
000226 704  0.4+  0.2+    000227 046  0.5+  0.6-    000301 402  0.6+  0.4+
000227 046  0.7+  0.6-    000227 046  1.4+  0.1-    000306 360  0.0   0.0
000227 046  0.2+  0.3-    000227 046  0.9+  0.1+    000306 360  0.3+  0.2-
000227 046  0.4+  1.2-    000227 046  1.1+  0.6+    000306 360  0.0   0.5-
000227 046  0.6+  0.0     000227 046  0.9+  0.1+    020623 950  0.2+  0.4+
000227 046  0.1-  0.3-    000228 557  0.9-  0.3+    020623 950  0.3+  0.5+
000227 046  0.8-  0.3-    000228 557  0.2+  0.1-    020623 950  0.1+  0.6+
000227 557  0.7-  0.1+    000228 557  0.6-  0.4+    020623 246  0.3+  0.6-
000227 557  0.0   0.1+    000229 704  0.5-  0.2-    020623 246  1.1-  0.3-
000227 557  0.1+  0.2+    000229 704  0.6+  0.3+    020623 246  0.2+  0.6-
000227 651  1.1-  0.6+    000229 704  0.4-  0.2+

Ephemeris:
2000 DJ8                 a,e,i = 1.41, 0.25, 38                  q = 1.0546
Date    TT    R. A. (2000) Decl.     Delta      r     Elong.  Phase     V
2002 06 15    17 22.84   +44 24.0    1.006    1.679   112.3    34.0    20.5
2002 06 25    17 04.14   +42 15.0    0.978    1.658   112.4    34.5    20.4
2002 07 05    16 48.03   +38 40.0    0.958    1.634   111.6    35.3    20.3
2002 07 15    16 36.26   +33 48.8    0.947    1.608   109.9    36.5    20.3
2002 07 25    16 29.61   +27 58.6    0.946    1.580   107.3    37.8    20.3
2002 08 04    16 27.95   +21 29.9    0.955    1.551   103.8    39.4    20.3
2002 08 14    16 30.90   +14 42.1    0.975    1.519    99.7    41.1    20.4
2002 08 24    16 37.91   +07 52.7    1.004    1.486    95.0    42.7    20.4
2002 09 03    16 48.49   +01 15.1    1.041    1.451    90.1    44.0    20.5
2002 09 13    17 02.28   -05 01.4    1.084    1.415    85.1    45.1    20.6
2002 09 23    17 19.03   -10 50.4    1.132    1.378    80.2    45.8    20.6
2002 10 03    17 38.54   -16 08.9    1.181    1.341    75.3    46.2    20.7
2002 10 13    18 00.78   -20 54.8    1.229    1.303    70.7    46.3    20.7
2002 10 23    18 25.70   -25 07.1    1.275    1.265    66.5    46.1    20.7
2002 11 02    18 53.30   -28 45.0    1.315    1.229    62.5    45.8    20.7

Gareth V. Williams           (C) Copyright 2002 MPC           M.P.E.C. 2002-M26

Read MPEC 2002-M25 Read MPEC 2002-M27


Our Web policy. Index to the CBAT/MPC/ICQ pages.


Valid HTML 4.01!